CW5629 Weather Reports


time (UTC)temp
C
wind
direction
speed
KPH
gust
KPH
rain 1hr
cm
rain 24hr
cm
rain mn
cm
humidity
%
barometer
mb
20260510190119 12 94 0.0 3.2 0.00 0.00 0.00 66 1013.3
20260510185125 12 94 0.0 3.2 0.00 0.00 0.00 65 1013.2
20260510184138 13 77 0.0 3.2 0.00 0.00 0.00 63 1013.3
20260510183122 13 108 0.0 4.8 0.00 0.00 0.00 62 1013.3
20260510182133 14 79 0.0 4.8 0.00 0.00 0.00 60 1013.4
20260510181118 15 1 1.6 8.0 0.00 0.00 0.00 59 1013.4
20260510180130 15 147 1.6 3.2 0.00 0.00 0.00 59 1013.4
20260510175118 15 127 1.6 4.8 0.00 0.00 0.00 60 1013.6
20260510174128 14 113 1.6 8.0 0.00 0.00 0.00 61 1013.6
20260510173123 13 86 1.6 8.0 0.00 0.00 0.00 63 1013.7
20260510172114 13 77 1.6 8.0 0.00 0.00 0.00 64 1013.7
20260510171125 13 155 3.2 9.7 0.00 0.00 0.00 63 1013.7
20260510170119 13 340 1.6 6.4 0.00 0.00 0.00 62 1013.8
20260510165125 14 92 0.0 8.0 0.00 0.00 0.00 64 1013.7
20260510164117 13 4 3.2 9.7 0.00 0.00 0.00 64 1013.7
20260510163130 14 160 1.6 6.4 0.00 0.00 0.00 64 1013.8
20260510162116 14 131 3.2 11.3 0.00 0.00 0.00 63 1013.8
20260510161130 14 103 1.6 6.4 0.00 0.00 0.00 64 1013.9
20260510160115 14 129 1.6 6.4 0.00 0.00 0.00 63 1014.0
20260510155129 15 191 1.6 6.4 0.00 0.00 0.00 62 1014.0
20260510154115 15 12 3.2 12.9 0.00 0.00 0.00 62 1014.0
20260510153129 15 86 1.6 9.7 0.00 0.00 0.00 61 1014.1
20260510152115 15 75 0.0 14.5 0.00 0.00 0.00 60 1014.1
20260510151128 16 315 1.6 11.3 0.00 0.00 0.00 61 1014.2
20260510150115 16 294 3.2 8.0 0.00 0.00 0.00 60 1014.2
20260510145129 16 106 1.6 6.4 0.00 0.00 0.00 59 1014.2
20260510144122 17 114 1.6 12.9 0.00 0.00 0.00 59 1014.2
20260510143133 17 148 1.6 17.7 0.00 0.00 0.00 57 1014.3
20260510142120 17 93 1.6 8.0 0.00 0.00 0.00 56 1014.4
20260510141153 17 320 3.2 11.3 0.00 0.00 0.00 55 1014.5
20260510140144 17 316 1.6 6.4 0.00 0.00 0.00 56 1014.6
20260510135134 17 63 1.6 11.3 0.00 0.00 0.00 56 1014.5
20260510134118 17 291 3.2 14.5 0.00 0.00 0.00 57 1014.5
20260510133130 18 42 3.2 12.9 0.00 0.00 0.00 57 1014.5
20260510132139 18 329 3.2 9.7 0.00 0.00 0.00 56 1014.5
20260510131146 18 166 3.2 16.1 0.00 0.00 0.00 55 1014.5
20260510130119 18 170 3.2 9.7 0.00 0.00 0.00 55 1014.6
20260510125125 18 105 1.6 8.0 0.00 0.00 0.00 55 1014.7
20260510124118 18 302 3.2 12.9 0.00 0.00 0.00 55 1014.8
20260510123151 18 111 1.6 8.0 0.00 0.00 0.00 57 1014.8
20260510122120 18 90 1.6 6.4 0.00 0.00 0.00 55 1014.9
20260510121151 17 98 1.6 9.7 0.00 0.00 0.00 56 1015.1
20260510120136 17 60 3.2 8.0 0.00 0.00 0.00 55 1015.1
20260510115133 17 90 1.6 9.7 0.00 0.00 0.00 55 1015.1
20260510114138 18 103 1.6 6.4 0.00 0.00 0.00 56 1015.2
20260510113150 18 68 1.6 8.0 0.00 0.00 0.00 56 1015.3
20260510112122 17 110 1.6 6.4 0.00 0.00 0.00 56 1015.4
20260510111135 17 53 4.8 9.7 0.00 0.00 0.00 56 1015.4
20260510110121 17 118 3.2 12.9 0.00 0.00 0.00 56 1015.4
20260510105132 17 91 1.6 11.3 0.00 0.00 0.00 56 1015.4
20260510104117 17 57 1.6 9.7 0.00 0.00 0.00 57 1015.5
20260510103131 16 138 1.6 9.7 0.00 0.00 0.00 59 1015.5
20260510102123 16 7 3.2 12.9 0.00 0.00 0.00 58 1015.6
20260510101129 16 144 3.2 9.7 0.00 0.00 0.00 60 1015.6
20260510100123 16 247 3.2 11.3 0.00 0.00 0.00 59 1015.7
20260510095157 16 359 3.2 9.7 0.00 0.00 0.00 59 1015.7
20260510094122 16 124 1.6 8.0 0.00 0.00 0.00 61 1015.6
20260510093115 16 104 1.6 8.0 0.00 0.00 0.00 63 1015.7
20260510092127 15 120 1.6 9.7 0.00 0.00 0.00 62 1015.8
20260510091129 15 238 3.2 17.7 0.00 0.00 0.00 61 1015.9
20260510090122 15 116 3.2 6.4 0.00 0.00 0.00 64 1016.0
20260510085135 15 61 1.6 14.5 0.00 0.00 0.00 65 1016.2
20260510084121 14 255 1.6 8.0 0.00 0.00 0.00 66 1016.2
20260510083134 14 113 3.2 8.0 0.00 0.00 0.00 66 1016.3
20260510082119 13 357 3.2 9.7 0.00 0.00 0.00 70 1016.3
20260510081116 12 335 3.2 8.0 0.00 0.00 0.00 70 1016.4
20260510080145 13 156 1.6 9.7 0.00 0.00 0.00 69 1016.4
20260510075114 13 67 1.6 11.3 0.00 0.00 0.00 68 1016.4
20260510074127 13 84 1.6 11.3 0.00 0.00 0.00 71 1016.3
20260510073140 12 190 1.6 8.0 0.00 0.00 0.00 72 1016.2
20260510072131 12 138 1.6 12.9 0.00 0.00 0.00 73 1016.3
20260510071116 12 120 1.6 11.3 0.00 0.00 0.00 75 1016.2
20260510070129 11 26 0.0 6.4 0.00 0.00 0.00 76 1016.1
20260510065115 11 103 1.6 8.0 0.00 0.00 0.00 77 1016.1
20260510064127 11 327 0.0 6.4 0.00 0.00 0.00 79 1015.9
20260510063120 10 82 1.6 8.0 0.00 0.00 0.00 81 1015.8
20260510062126 10 207 0.0 8.0 0.00 0.00 0.00 83 1015.9
20260510061119 9 51 1.6 6.4 0.00 0.00 0.00 84 1015.9
20260510060153 8 93 1.6 8.0 0.00 0.00 0.00 84 1015.8
20260510055145 8 93 0.0 6.4 0.00 0.00 0.00 85 1015.8
20260510054129 8 130 0.0 4.8 0.00 0.00 0.00 84 1015.8
20260510053121 8 146 0.0 12.9 0.00 0.00 0.00 83 1015.9
20260510052128 8 21 1.6 4.8 0.00 0.00 0.00 83 1016.0
20260510051122 9 99 0.0 4.8 0.00 0.00 0.00 82 1016.0
20260510050136 9 141 0.0 6.4 0.00 0.00 0.00 81 1016.0
20260510045118 9 88 0.0 4.8 0.00 0.00 0.00 80 1015.9
20260510044131 9 122 0.0 3.2 0.00 0.00 0.00 79 1016.0
20260510043117 9 113 0.0 6.4 0.00 0.00 0.00 79 1015.9
20260510042129 9 102 0.0 3.2 0.00 0.00 0.00 79 1015.8
20260510041122 9 95 0.0 8.0 0.00 0.00 0.00 79 1015.9
20260510040128 10 115 0.0 4.8 0.00 0.00 0.00 79 1015.9
20260510035122 10 128 0.0 6.4 0.00 0.00 0.00 79 1015.8
20260510034134 10 110 0.0 4.8 0.00 0.00 0.00 79 1015.9
20260510033124 10 111 0.0 1.6 0.00 0.00 0.00 79 1015.9
20260510032137 10 87 0.0 3.2 0.00 0.00 0.00 78 1016.0
20260510031129 10 80 0.0 3.2 0.00 0.00 0.00 78 1016.0
20260510030114 10 72 0.0 1.6 0.00 0.00 0.00 78 1016.0
20260510025128 11 45 0.0 1.6 0.00 0.00 0.00 78 1016.1
20260510024122 11 76 0.0 4.8 0.00 0.00 0.00 77 1016.2
20260510023127 11 105 0.0 4.8 0.00 0.00 0.00 78 1016.0
20260510022121 11 71 0.0 3.2 0.00 0.00 0.00 79 1015.9
20260510021126 11 113 0.0 6.4 0.00 0.00 0.00 80 1015.9
20260510020119 11 97 0.0 4.8 0.00 0.00 0.00 82 1015.8
20260510015133 12 108 0.0 3.2 0.00 0.00 0.00 82 1015.8
20260510014119 12 77 1.6 9.7 0.00 0.00 0.00 83 1015.9
20260510013132 12 113 0.0 3.2 0.00 0.00 0.00 83 1015.9
20260510012146 12 127 1.6 4.8 0.00 0.00 0.00 83 1016.0
20260510011157 12 110 0.0 1.6 0.00 0.00 0.00 82 1016.0
20260510010144 12 98 0.0 3.2 0.00 0.00 0.00 82 1015.9
20260510005116 12 89 0.0 3.2 0.00 0.00 0.00 81 1015.9
20260510004131 13 86 1.6 6.4 0.00 0.00 0.00 81 1015.8
20260510003116 13 77 0.0 4.8 0.00 0.00 0.00 80 1015.8
20260510002128 13 108 0.0 4.8 0.00 0.00 0.00 80 1015.8
20260510001118 13 98 0.0 6.4 0.00 0.00 0.00 79 1015.8
20260510000132 13 126 0.0 4.8 0.00 0.00 0.00 79 1015.8
20260509235117 13 89 0.0 4.8 0.00 0.00 0.00 79 1015.8
20260509234111 13 120 0.0 11.3 0.00 0.00 0.00 79 1015.7
20260509233118 13 25 1.6 8.0 0.00 0.00 0.00 79 1015.6
20260509232112 13 105 0.0 4.8 0.00 0.00 0.00 79 1015.6
20260509231118 13 15 1.6 6.4 0.00 0.00 0.00 79 1015.5
20260509230111 13 103 1.6 8.0 0.00 0.00 0.00 79 1015.6
20260509225124 14 136 1.6 6.4 0.00 0.00 0.00 78 1015.3
20260509224111 14 18 1.6 4.8 0.00 0.00 0.00 78 1015.5
20260509223124 14 96 1.6 11.3 0.00 0.00 0.00 78 1015.6
20260509222115 14 122 1.6 9.7 0.00 0.00 0.00 77 1015.4
20260509221120 14 20 1.6 6.4 0.00 0.00 0.00 76 1015.5
20260509220130 14 47 1.6 9.7 0.00 0.00 0.00 76 1015.5
20260509215124 15 43 0.0 6.4 0.00 0.00 0.00 75 1015.5
20260509214130 15 325 1.6 6.4 0.00 0.00 0.00 75 1015.5
20260509213124 15 111 1.6 6.4 0.00 0.00 0.00 73 1015.4
20260509212136 15 104 0.0 6.4 0.00 0.00 0.00 71 1015.4
20260509211122 15 134 1.6 9.7 0.00 0.00 0.00 67 1015.3
20260509210115 15 105 0.0 4.8 0.00 0.00 0.00 66 1015.3
20260509205130 15 108 0.0 3.2 0.00 0.00 0.00 65 1015.1
20260509204135 15 143 0.0 1.6 0.00 0.00 0.00 65 1015.1
20260509203147 15 97 0.0 4.8 0.00 0.00 0.00 64 1014.9
20260509202118 15 153 0.0 1.6 0.00 0.00 0.00 63 1014.9
20260509201126 16 91 0.0 3.2 0.00 0.00 0.00 62 1014.9
20260509200139 16 150 0.0 6.4 0.00 0.00 0.00 61 1014.9
20260509195130 16 100 1.6 4.8 0.00 0.00 0.00 60 1014.9
20260509194122 16 34 0.0 4.8 0.00 0.00 0.00 60 1014.9
20260509193128 17 80 1.6 6.4 0.00 0.00 0.00 59 1014.8
20260509192141 17 101 1.6 4.8 0.00 0.00 0.00 59 1014.8
20260509191114 17 23 0.0 6.4 0.00 0.00 0.00 58 1014.7